Regional Weather Roundup
Issued by NWS

Home | Current Version | Previous Version | Text Only | Print | Product List | Glossary On
Versions: 1 2 3 4 5 6 7 8 9 10 11 12 13 14 15 16 17 18 19 20 21 22 23 24 25 26 27 28 29 30 31 32 33 34 35 36 37 38 39 40 41 42 43 44 45 46 47 48 49 50
000
ASUS43 KDTX 010110
RWRMI
MICHIGAN HOURLY REGIONAL WEATHER ROUNDUP
NATIONAL WEATHER SERVICE DETROIT/PONTIAC MI
900 PM EDT TUE JUN 30 2015

NOTE: "FAIR" INDICATES FEW OR NO CLOUDS BELOW 12,000 FEET WITH NO
SIGNIFICANT WEATHER AND/OR OBSTRUCTION TO VISIBILITY.

MIZ047>049-052>055-059>063-066>070-074>076-081>083-010200-
SOUTHEAST LOWER MICHIGAN

CITY           SKY/WX    TMP DP  RH WIND       PRES   REMARKS
ADRIAN         PTCLDY    69  61  75 NW3       29.78S
ALMA           RAIN      64  62  94 N8        29.80R
ANN ARBOR      MOCLDY    66  64  93 W5        29.77F
BAD AXE        CLOUDY    63  57  81 E5        29.80S
CARO           CLOUDY    67  60  77 NE3       29.77S
DETROIT CITY   CLOUDY    67  63  87 SW7       29.76R
DETROIT        CLOUDY    67  64  90 W5        29.77R
FLINT          MOCLDY    67  63  87 NW3       29.78S
GROSSE ILE     MOCLDY    66  63  88 NW5       29.74F
HILLSDALE      MOCLDY    67  62  83 W8        29.81R
HOWELL         CLOUDY    66  64  91 SW6       29.78S

CITY           SKY/WX    TMP DP  RH WIND       PRES   REMARKS
JACKSON        CLOUDY    66  61  84 NW8       29.79R
LAMBERTVILLE   MOCLDY    69  61  76 CALM      29.78S
LANSING        HVY RAIN  66  62  87 NW5       29.80R VSB 1
LAPEER         LGT RAIN  65  62  89 CALM      29.78R
MASON          RAIN      64  62  92 W6        29.79R
MONROE         MOCLDY    64  62  91 W5        29.75S
MT. CLEMENS    RAIN      66  64  94 N8        29.75S VSB 1
PONTIAC        CLOUDY    69  62  78 N5        29.76S
PORT HOPE        N/A     61  57  87 N5        29.78S
PORT HURON     CLOUDY    63  61  94 NE5       29.78R
TRI CITIES     CLOUDY    66  61  84 N8        29.79R
MIDLAND        LGT RAIN  63  61  92 NW3       29.79R
TROY           CLOUDY    72  63  73 W3        29.78R
SAGINAW HB     CLOUDY    64  59  82 N6        29.78R
$$
MIZ043>046-050>051-056>058-064>065-071>073-077>080-010200-
SOUTHWEST LOWER MICHIGAN

CITY           SKY/WX    TMP DP  RH WIND       PRES   REMARKS
BATTLE CREEK   MOCLDY    66  59  78 W9        29.83R
BENTON HARBOR  CLOUDY    61  58  90 NW5       29.86R
BIG RAPIDS     CLOUDY    64  58  80 NW10      29.82R
COLDWATER      CLOUDY    65  57  74 NW15      29.82R
FREMONT        MOCLDY    59  56  90 NW14      29.84R
HOLLAND        CLEAR     65  57  75 NW12      29.84R
GRAND RAPIDS   MOCLDY    68  62  81 NW12      29.81R
IONIA          CLOUDY    68  63  82 NW6       29.79R
KALAMAZOO      CLOUDY    65  58  78 W9        29.83R
LUDINGTON      CLOUDY    56  52  88 N9G16     29.88R
MARSHALL       MOCLDY    66  60  80 W9        29.81R
MOUNT PLEASANT LGT RAIN  62  60  93 N6        29.80R
MUSKEGON       PTCLDY    64  54  69 N17G26    29.85R
SOUTH HAVEN    MOCLDY    60  57  88 N6G16     29.85S
$$
MIZ016>042-010200-
NORTHERN LOWER MICHIGAN

CITY           SKY/WX    TMP DP  RH WIND       PRES   REMARKS
ALPENA         CLOUDY    64  61  90 E5        29.82R
BEAVER ISLAND  CLOUDY    53  48  83 NW10G21   29.87S
BELLAIRE       CLOUDY    58  53  82 NW7       29.86R
CADILLAC       CLOUDY    55  53  93 NW13      29.85R FOG
CHARLEVOIX     CLOUDY    57  52  82 NW10      29.89R
FRANKFORT      CLOUDY    55  47  72 N10G18    29.89R
GAYLORD        CLOUDY    60  60 100 W9        29.84R FOG
GRAYLING       CLOUDY    61  59  94 NW7       29.84R
HARBOR SPRINGS CLOUDY    57  55  92 NW6       29.84R
HOUGHTON LAKE  CLOUDY    61  59  93 NW5       29.83R
MANISTEE       CLOUDY   N/A N/A N/A N8        29.89R
OSCODA         CLOUDY    65  57  76 N9        29.79S
PELLSTON       CLOUDY    59  57  93 W9        29.83R
ROGERS CITY    LGT RAIN  64  62  93 CALM      29.82S
TRAVERSE CITY  CLOUDY    54  50  86 NW10      29.86R
$$
MIZ007>008-015-010200-
EASTERN UPPER MICHIGAN

CITY           SKY/WX    TMP DP  RH WIND       PRES   REMARKS
KINROSS        CLOUDY    54  54 100 N7        29.83S
MACKINAC ISLAN CLOUDY    57  57 100 NW7       29.83R
NEWBERRY       CLOUDY    48  46  94 NW7       29.87R
S. S. MARIE    CLOUDY    55  53  93 NW7       29.83S
MUNISING         N/A     47  44  90 NW13      29.92S
$$
MIZ004>006-011>014-085-010200-
CENTRAL UPPER MICHIGAN

CITY           SKY/WX    TMP DP  RH WIND       PRES   REMARKS
MANISTIQUE     CLOUDY    49  45  85 N13G23    29.88R
ESCANABA       CLOUDY   N/A N/A N/A N10       29.91R
MENOMINEE      CLOUDY    55  45  67 N14G21    29.92R
SAWYER-GWINN   CLOUDY    48  43  81 N13       29.93S
$$
MIZ001>003-009>011-084-010200-
WESTERN UPPER MICHIGAN

CITY           SKY/WX    TMP DP  RH WIND       PRES   REMARKS
IRON MOUNTAIN  CLEAR     55  43  63 N13       29.94R
HOUGHTON       CLEAR     52  44  74 S3        29.97R
COPPER HARBOR    N/A     50  44  80 N10       29.97R
IRONWOOD       CLEAR     57  45  62 NE3       29.95S
$$

ABBREVIATIONS USED IN REMARKS
   TC - TEMPERATURE IN CELSIUS
  WCI - WIND CHILL INDEX
   HX - HEAT INDEX
  VSB - VISIBILITY




USA.gov is the U.S. government's official web portal to all federal, state and local government web resources and services.